Location: Jaite
(41.2884°N, 81.5737°W)
Time: 05:51:21
(UTC+00:00)

NOSS 2 (A) - Pass Details

Date: 18 January 2020
Orbit: 273 x 1575 km, 63.3° (Epoch: 06 February)

Event Time Altitude Azimuth Distance (km) Brightness Sun altitude
Exits shadow 11:48:35 17° 327° (NNW) 833 5.8 -11.3°
Maximum altitude 11:50:18 86° 56° (NE) 281 3.8 -11.0°
Drops below altitude 10° 11:52:38 10° 145° (SE) 1,102 7.7 -10.5°
Sets 11:54:32 0° 145° (SE) 1,945 9.1 -10.2°
